iso_date,epoch_date,Year,Hour,Min,DOY,POS_DOY,Lat,Lon,BP,Ts,Ta,has_bp,has_ts,has_ta,BuoyID,Buoy_Type,Buoy_Owner,Logistics,Hemisphere
2018-06-01T00:00:00Z,1527811200,2018,0,0,152.0,152.0,59.9246,-23.128,-999.00,8.55,-999.0,no,yes,no,300234065513820,SVPVHI,AOML,UNKNOWN,North
2018-06-01T00:30:14Z,1527813014,2018,0,30,152.021,152.021,59.9238,-23.128,-999.00,8.59,-999.0,no,yes,no,300234065513820,SVPVHI,AOML,UNKNOWN,North
2018-06-01T01:00:28Z,1527814829,2018,1,0,152.042,152.042,59.9228,-23.1272,-999.00,8.61,-999.0,no,yes,no,300234065513820,SVPVHI,AOML,UNKNOWN,North
2018-06-01T01:29:16Z,1527816557,2018,1,30,152.062,152.062,59.9216,-23.1258,-999.00,8.6,-999.0,no,yes,no,300234065513820,SVPVHI,AOML,UNKNOWN,North
2018-06-01T01:59:31Z,1527818371,2018,2,0,152.083,152.083,59.9204,-23.124,-999.00,8.58,-999.0,no,yes,no,300234065513820,SVPVHI,AOML,UNKNOWN,North
2018-06-01T02:29:45Z,1527820186,2018,2,30,152.104,152.104,59.919,-23.1222,-999.00,8.57,-999.0,no,yes,no,300234065513820,SVPVHI,AOML,UNKNOWN,North
2018-06-01T03:00:00Z,1527822000,2018,3,0,152.125,152.125,59.9178,-23.1204,-999.00,8.56,-999.0,no,yes,no,300234065513820,SVPVHI,AOML,UNKNOWN,North
2018-06-01T03:30:14Z,1527823814,2018,3,30,152.146,152.146,59.9162,-23.1186,-999.00,8.54,-999.0,no,yes,no,300234065513820,SVPVHI,AOML,UNKNOWN,North
2018-06-01T04:00:28Z,1527825629,2018,4,0,152.167,152.167,59.9148,-23.1164,-999.00,8.53,-999.0,no,yes,no,300234065513820,SVPVHI,AOML,UNKNOWN,North
2018-06-01T04:30:43Z,1527827443,2018,4,30,152.188,152.188,59.9134,-23.1154,-999.00,8.52,-999.0,no,yes,no,300234065513820,SVPVHI,AOML,UNKNOWN,North
2018-06-01T04:59:31Z,1527829171,2018,5,0,152.208,152.208,59.9122,-23.115,-999.00,8.51,-999.0,no,yes,no,300234065513820,SVPVHI,AOML,UNKNOWN,North
2018-06-01T05:29:45Z,1527830986,2018,5,30,152.229,152.229,59.9112,-23.1138,-999.00,8.5,-999.0,no,yes,no,300234065513820,SVPVHI,AOML,UNKNOWN,North
2018-06-01T06:00:00Z,1527832800,2018,6,0,152.25,152.25,59.9104,-23.1118,-999.00,8.52,-999.0,no,yes,no,300234065513820,SVPVHI,AOML,UNKNOWN,North
2018-06-01T06:30:14Z,1527834614,2018,6,30,152.271,152.271,59.9094,-23.1102,-999.00,8.52,-999.0,no,yes,no,300234065513820,SVPVHI,AOML,UNKNOWN,North
2018-06-01T07:00:28Z,1527836429,2018,7,0,152.292,152.292,59.9082,-23.1092,-999.00,8.53,-999.0,no,yes,no,300234065513820,SVPVHI,AOML,UNKNOWN,North
2018-06-01T07:29:16Z,1527838157,2018,7,30,152.312,152.312,59.9066,-23.1082,-999.00,8.54,-999.0,no,yes,no,300234065513820,SVPVHI,AOML,UNKNOWN,North
2018-06-01T07:59:31Z,1527839971,2018,8,0,152.333,152.333,59.9052,-23.1066,-999.00,8.54,-999.0,no,yes,no,300234065513820,SVPVHI,AOML,UNKNOWN,North
2018-06-01T08:29:45Z,1527841786,2018,8,30,152.354,152.354,59.9034,-23.105,-999.00,8.54,-999.0,no,yes,no,300234065513820,SVPVHI,AOML,UNKNOWN,North
2018-06-01T09:00:00Z,1527843600,2018,9,0,152.375,152.375,59.9016,-23.1042,-999.00,8.54,-999.0,no,yes,no,300234065513820,SVPVHI,AOML,UNKNOWN,North
2018-06-01T09:30:14Z,1527845414,2018,9,30,152.396,152.396,59.8994,-23.104,-999.00,35.94,-999.0,no,yes,no,300234065513820,SVPVHI,AOML,UNKNOWN,North
2018-06-01T10:00:28Z,1527847229,2018,10,0,152.417,152.417,59.8976,-23.1044,-999.00,8.54,-999.0,no,yes,no,300234065513820,SVPVHI,AOML,UNKNOWN,North
2018-06-01T10:30:43Z,1527849043,2018,10,30,152.438,152.438,59.8962,-23.1036,-999.00,8.55,-999.0,no,yes,no,300234065513820,SVPVHI,AOML,UNKNOWN,North
2018-06-01T10:59:31Z,1527850771,2018,11,0,152.458,152.458,59.8946,-23.1022,-999.00,8.56,-999.0,no,yes,no,300234065513820,SVPVHI,AOML,UNKNOWN,North
2018-06-01T11:29:45Z,1527852586,2018,11,30,152.479,152.479,59.893,-23.1002,-999.00,8.58,-999.0,no,yes,no,300234065513820,SVPVHI,AOML,UNKNOWN,North
2018-06-01T12:00:00Z,1527854400,2018,12,0,152.5,152.5,59.8916,-23.098,-999.00,8.58,-999.0,no,yes,no,300234065513820,SVPVHI,AOML,UNKNOWN,North
2018-06-01T12:30:14Z,1527856214,2018,12,30,152.521,152.521,59.89,-23.095,-999.00,8.59,-999.0,no,yes,no,300234065513820,SVPVHI,AOML,UNKNOWN,North
2018-06-01T13:00:28Z,1527858029,2018,13,0,152.542,152.542,59.8882,-23.0908,-999.00,8.63,-999.0,no,yes,no,300234065513820,SVPVHI,AOML,UNKNOWN,North
2018-06-01T13:29:16Z,1527859757,2018,13,30,152.562,152.562,59.886,-23.0866,-999.00,8.64,-999.0,no,yes,no,300234065513820,SVPVHI,AOML,UNKNOWN,North
2018-06-01T13:59:31Z,1527861571,2018,14,0,152.583,152.583,59.8844,-23.0826,-999.00,8.66,-999.0,no,yes,no,300234065513820,SVPVHI,AOML,UNKNOWN,North
2018-06-01T14:29:45Z,1527863386,2018,14,30,152.604,152.604,59.8824,-23.0788,-999.00,8.67,-999.0,no,yes,no,300234065513820,SVPVHI,AOML,UNKNOWN,North
2018-06-01T15:00:00Z,1527865200,2018,15,0,152.625,152.625,59.8804,-23.0756,-999.00,8.69,-999.0,no,yes,no,300234065513820,SVPVHI,AOML,UNKNOWN,North
2018-06-01T15:30:14Z,1527867014,2018,15,30,152.646,152.646,59.879,-23.0722,-999.00,8.73,-999.0,no,yes,no,300234065513820,SVPVHI,AOML,UNKNOWN,North
2018-06-01T16:00:28Z,1527868829,2018,16,0,152.667,152.667,59.8776,-23.0692,-999.00,8.77,-999.0,no,yes,no,300234065513820,SVPVHI,AOML,UNKNOWN,North
2018-06-01T16:30:43Z,1527870643,2018,16,30,152.688,152.688,59.8764,-23.0664,-999.00,8.78,-999.0,no,yes,no,300234065513820,SVPVHI,AOML,UNKNOWN,North
2018-06-01T16:59:31Z,1527872371,2018,17,0,152.708,152.708,59.8754,-23.0634,-999.00,8.79,-999.0,no,yes,no,300234065513820,SVPVHI,AOML,UNKNOWN,North
2018-06-01T17:29:45Z,1527874186,2018,17,30,152.729,152.729,59.8746,-23.0592,-999.00,8.79,-999.0,no,yes,no,300234065513820,SVPVHI,AOML,UNKNOWN,North
2018-06-01T18:00:00Z,1527876000,2018,18,0,152.75,152.75,59.8742,-23.0562,-999.00,8.79,-999.0,no,yes,no,300234065513820,SVPVHI,AOML,UNKNOWN,North
2018-06-01T18:30:14Z,1527877814,2018,18,30,152.771,152.771,59.8742,-23.0528,-999.00,8.78,-999.0,no,yes,no,300234065513820,SVPVHI,AOML,UNKNOWN,North
2018-06-01T19:00:28Z,1527879629,2018,19,0,152.792,152.792,59.874,-23.0486,-999.00,8.77,-999.0,no,yes,no,300234065513820,SVPVHI,AOML,UNKNOWN,North
2018-06-01T19:29:16Z,1527881357,2018,19,30,152.812,152.812,59.8736,-23.0438,-999.00,8.75,-999.0,no,yes,no,300234065513820,SVPVHI,AOML,UNKNOWN,North
2018-06-01T19:59:31Z,1527883171,2018,20,0,152.833,152.833,59.8728,-23.0384,-999.00,8.74,-999.0,no,yes,no,300234065513820,SVPVHI,AOML,UNKNOWN,North
2018-06-01T20:29:45Z,1527884986,2018,20,30,152.854,152.854,59.8714,-23.0328,-999.00,8.73,-999.0,no,yes,no,300234065513820,SVPVHI,AOML,UNKNOWN,North
2018-06-01T21:00:00Z,1527886800,2018,21,0,152.875,152.875,59.87,-23.027,-999.00,8.74,-999.0,no,yes,no,300234065513820,SVPVHI,AOML,UNKNOWN,North
2018-06-01T21:30:14Z,1527888614,2018,21,30,152.896,152.896,59.8684,-23.0208,-999.00,8.74,-999.0,no,yes,no,300234065513820,SVPVHI,AOML,UNKNOWN,North
2018-06-01T22:00:28Z,1527890429,2018,22,0,152.917,152.917,59.867,-23.015,-999.00,8.74,-999.0,no,yes,no,300234065513820,SVPVHI,AOML,UNKNOWN,North
2018-06-01T22:30:43Z,1527892243,2018,22,30,152.938,152.938,59.865,-23.0098,-999.00,35.94,-999.0,no,yes,no,300234065513820,SVPVHI,AOML,UNKNOWN,North
2018-06-01T22:59:31Z,1527893971,2018,23,0,152.958,152.958,59.8628,-23.0046,-999.00,8.74,-999.0,no,yes,no,300234065513820,SVPVHI,AOML,UNKNOWN,North
2018-06-01T23:29:45Z,1527895786,2018,23,30,152.979,152.979,59.861,-22.9998,-999.00,8.75,-999.0,no,yes,no,300234065513820,SVPVHI,AOML,UNKNOWN,North
2018-06-02T00:00:00Z,1527897600,2018,0,0,153.0,153.0,59.859,-22.9954,-999.00,8.77,-999.0,no,yes,no,300234065513820,SVPVHI,AOML,UNKNOWN,North
2018-06-02T00:30:14Z,1527899414,2018,0,30,153.021,153.021,59.8566,-22.9904,-999.00,8.78,-999.0,no,yes,no,300234065513820,SVPVHI,AOML,UNKNOWN,North
2018-06-02T01:00:28Z,1527901229,2018,1,0,153.042,153.042,59.855,-22.9852,-999.00,8.78,-999.0,no,yes,no,300234065513820,SVPVHI,AOML,UNKNOWN,North
2018-06-02T01:29:16Z,1527902957,2018,1,30,153.062,153.062,59.8536,-22.9796,-999.00,8.78,-999.0,no,yes,no,300234065513820,SVPVHI,AOML,UNKNOWN,North
2018-06-02T01:59:31Z,1527904771,2018,2,0,153.083,153.083,59.8526,-22.9738,-999.00,8.77,-999.0,no,yes,no,300234065513820,SVPVHI,AOML,UNKNOWN,North
2018-06-02T02:29:45Z,1527906586,2018,2,30,153.104,153.104,59.8524,-22.9668,-999.00,8.76,-999.0,no,yes,no,300234065513820,SVPVHI,AOML,UNKNOWN,North
2018-06-02T03:00:00Z,1527908400,2018,3,0,153.125,153.125,59.8522,-22.9588,-999.00,8.75,-999.0,no,yes,no,300234065513820,SVPVHI,AOML,UNKNOWN,North
2018-06-02T03:30:14Z,1527910214,2018,3,30,153.146,153.146,59.8516,-22.9504,-999.00,8.74,-999.0,no,yes,no,300234065513820,SVPVHI,AOML,UNKNOWN,North
2018-06-02T04:00:28Z,1527912029,2018,4,0,153.167,153.167,59.8508,-22.9418,-999.00,35.94,-999.0,no,yes,no,300234065513820,SVPVHI,AOML,UNKNOWN,North
2018-06-02T04:30:43Z,1527913843,2018,4,30,153.188,153.188,59.8502,-22.9336,-999.00,8.7,-999.0,no,yes,no,300234065513820,SVPVHI,AOML,UNKNOWN,North
2018-06-02T04:59:31Z,1527915571,2018,5,0,153.208,153.208,59.8496,-22.9256,-999.00,8.68,-999.0,no,yes,no,300234065513820,SVPVHI,AOML,UNKNOWN,North
2018-06-02T05:29:45Z,1527917386,2018,5,30,153.229,153.229,59.849,-22.9176,-999.00,8.67,-999.0,no,yes,no,300234065513820,SVPVHI,AOML,UNKNOWN,North
2018-06-02T06:00:00Z,1527919200,2018,6,0,153.25,153.25,59.8482,-22.9098,-999.00,8.65,-999.0,no,yes,no,300234065513820,SVPVHI,AOML,UNKNOWN,North
2018-06-02T06:30:14Z,1527921014,2018,6,30,153.271,153.271,59.8484,-22.9016,-999.00,8.62,-999.0,no,yes,no,300234065513820,SVPVHI,AOML,UNKNOWN,North
2018-06-02T07:00:28Z,1527922829,2018,7,0,153.292,153.292,59.8482,-22.8934,-999.00,8.6,-999.0,no,yes,no,300234065513820,SVPVHI,AOML,UNKNOWN,North
2018-06-02T07:29:16Z,1527924557,2018,7,30,153.312,153.312,59.848,-22.8844,-999.00,35.94,-999.0,no,yes,no,300234065513820,SVPVHI,AOML,UNKNOWN,North
2018-06-02T07:59:31Z,1527926371,2018,8,0,153.333,153.333,59.8478,-22.875,-999.00,8.59,-999.0,no,yes,no,300234065513820,SVPVHI,AOML,UNKNOWN,North
2018-06-02T08:29:45Z,1527928186,2018,8,30,153.354,153.354,59.8468,-22.8656,-999.00,8.6,-999.0,no,yes,no,300234065513820,SVPVHI,AOML,UNKNOWN,North
2018-06-02T09:00:00Z,1527930000,2018,9,0,153.375,153.375,59.8456,-22.8564,-999.00,8.61,-999.0,no,yes,no,300234065513820,SVPVHI,AOML,UNKNOWN,North
2018-06-02T09:30:14Z,1527931814,2018,9,30,153.396,153.396,59.8444,-22.8476,-999.00,8.63,-999.0,no,yes,no,300234065513820,SVPVHI,AOML,UNKNOWN,North
2018-06-02T10:00:28Z,1527933629,2018,10,0,153.417,153.417,59.8432,-22.8376,-999.00,8.64,-999.0,no,yes,no,300234065513820,SVPVHI,AOML,UNKNOWN,North
2018-06-02T10:30:43Z,1527935443,2018,10,30,153.438,153.438,59.8418,-22.8288,-999.00,8.66,-999.0,no,yes,no,300234065513820,SVPVHI,AOML,UNKNOWN,North
2018-06-02T10:59:31Z,1527937171,2018,11,0,153.458,153.458,59.8406,-22.8206,-999.00,8.71,-999.0,no,yes,no,300234065513820,SVPVHI,AOML,UNKNOWN,North
2018-06-02T11:29:45Z,1527938986,2018,11,30,153.479,153.479,59.8394,-22.8116,-999.00,8.77,-999.0,no,yes,no,300234065513820,SVPVHI,AOML,UNKNOWN,North
2018-06-02T12:00:00Z,1527940800,2018,12,0,153.5,153.5,59.838,-22.8032,-999.00,8.83,-999.0,no,yes,no,300234065513820,SVPVHI,AOML,UNKNOWN,North
2018-06-02T12:30:14Z,1527942614,2018,12,30,153.521,153.521,59.8368,-22.7952,-999.00,8.95,-999.0,no,yes,no,300234065513820,SVPVHI,AOML,UNKNOWN,North
2018-06-02T13:00:28Z,1527944429,2018,13,0,153.542,153.542,59.8362,-22.7878,-999.00,9.09,-999.0,no,yes,no,300234065513820,SVPVHI,AOML,UNKNOWN,North
2018-06-02T13:29:16Z,1527946157,2018,13,30,153.562,153.562,59.8354,-22.7806,-999.00,9.14,-999.0,no,yes,no,300234065513820,SVPVHI,AOML,UNKNOWN,North
2018-06-02T13:59:31Z,1527947971,2018,14,0,153.583,153.583,59.8352,-22.7738,-999.00,9.14,-999.0,no,yes,no,300234065513820,SVPVHI,AOML,UNKNOWN,North
2018-06-02T14:29:45Z,1527949786,2018,14,30,153.604,153.604,59.8356,-22.7668,-999.00,9.24,-999.0,no,yes,no,300234065513820,SVPVHI,AOML,UNKNOWN,North
2018-06-02T15:00:00Z,1527951600,2018,15,0,153.625,153.625,59.837,-22.7586,-999.00,9.18,-999.0,no,yes,no,300234065513820,SVPVHI,AOML,UNKNOWN,North
2018-06-02T15:30:14Z,1527953414,2018,15,30,153.646,153.646,59.8386,-22.7484,-999.00,9.19,-999.0,no,yes,no,300234065513820,SVPVHI,AOML,UNKNOWN,North
2018-06-02T16:00:28Z,1527955229,2018,16,0,153.667,153.667,59.8402,-22.7366,-999.00,9.19,-999.0,no,yes,no,300234065513820,SVPVHI,AOML,UNKNOWN,North
2018-06-02T16:30:43Z,1527957043,2018,16,30,153.688,153.688,59.8418,-22.7238,-999.00,9.12,-999.0,no,yes,no,300234065513820,SVPVHI,AOML,UNKNOWN,North
2018-06-02T16:59:31Z,1527958771,2018,17,0,153.708,153.708,59.8426,-22.7102,-999.00,9.05,-999.0,no,yes,no,300234065513820,SVPVHI,AOML,UNKNOWN,North
2018-06-02T17:29:45Z,1527960586,2018,17,30,153.729,153.729,59.8432,-22.6966,-999.00,9.14,-999.0,no,yes,no,300234065513820,SVPVHI,AOML,UNKNOWN,North
2018-06-02T18:00:00Z,1527962400,2018,18,0,153.75,153.75,59.8432,-22.6838,-999.00,9.18,-999.0,no,yes,no,300234065513820,SVPVHI,AOML,UNKNOWN,North
2018-06-02T18:30:14Z,1527964214,2018,18,30,153.771,153.771,59.8432,-22.6714,-999.00,9.13,-999.0,no,yes,no,300234065513820,SVPVHI,AOML,UNKNOWN,North
2018-06-02T19:00:28Z,1527966029,2018,19,0,153.792,153.792,59.8432,-22.6596,-999.00,9.13,-999.0,no,yes,no,300234065513820,SVPVHI,AOML,UNKNOWN,North
2018-06-02T19:29:16Z,1527967757,2018,19,30,153.812,153.812,59.8432,-22.6474,-999.00,9.06,-999.0,no,yes,no,300234065513820,SVPVHI,AOML,UNKNOWN,North
2018-06-02T19:59:31Z,1527969571,2018,20,0,153.833,153.833,59.843,-22.6364,-999.00,9.01,-999.0,no,yes,no,300234065513820,SVPVHI,AOML,UNKNOWN,North
2018-06-02T20:29:45Z,1527971386,2018,20,30,153.854,153.854,59.8426,-22.626,-999.00,8.97,-999.0,no,yes,no,300234065513820,SVPVHI,AOML,UNKNOWN,North
2018-06-02T21:00:00Z,1527973200,2018,21,0,153.875,153.875,59.8422,-22.6164,-999.00,8.93,-999.0,no,yes,no,300234065513820,SVPVHI,AOML,UNKNOWN,North
2018-06-02T21:30:14Z,1527975014,2018,21,30,153.896,153.896,59.842,-22.6086,-999.00,8.95,-999.0,no,yes,no,300234065513820,SVPVHI,AOML,UNKNOWN,North
2018-06-02T22:00:28Z,1527976829,2018,22,0,153.917,153.917,59.842,-22.601,-999.00,9.03,-999.0,no,yes,no,300234065513820,SVPVHI,AOML,UNKNOWN,North
2018-06-02T22:30:43Z,1527978643,2018,22,30,153.938,153.938,59.8422,-22.5938,-999.00,9.07,-999.0,no,yes,no,300234065513820,SVPVHI,AOML,UNKNOWN,North
2018-06-02T22:59:31Z,1527980371,2018,23,0,153.958,153.958,59.8426,-22.586,-999.00,9.08,-999.0,no,yes,no,300234065513820,SVPVHI,AOML,UNKNOWN,North
2018-06-02T23:29:45Z,1527982186,2018,23,30,153.979,153.979,59.8436,-22.5778,-999.00,9.07,-999.0,no,yes,no,300234065513820,SVPVHI,AOML,UNKNOWN,North
2018-06-03T00:00:00Z,1527984000,2018,0,0,154.0,154.0,59.845,-22.5688,-999.00,9.08,-999.0,no,yes,no,300234065513820,SVPVHI,AOML,UNKNOWN,North
2018-06-03T00:30:14Z,1527985814,2018,0,30,154.021,154.021,59.8462,-22.5592,-999.00,9.06,-999.0,no,yes,no,300234065513820,SVPVHI,AOML,UNKNOWN,North
2018-06-03T01:00:28Z,1527987629,2018,1,0,154.042,154.042,59.8472,-22.5488,-999.00,9.01,-999.0,no,yes,no,300234065513820,SVPVHI,AOML,UNKNOWN,North
2018-06-03T01:29:16Z,1527989357,2018,1,30,154.062,154.062,59.8484,-22.5388,-999.00,8.97,-999.0,no,yes,no,300234065513820,SVPVHI,AOML,UNKNOWN,North
2018-06-03T01:59:31Z,1527991171,2018,2,0,154.083,154.083,59.8494,-22.5288,-999.00,8.96,-999.0,no,yes,no,300234065513820,SVPVHI,AOML,UNKNOWN,North
2018-06-03T02:29:45Z,1527992986,2018,2,30,154.104,154.104,59.8506,-22.518,-999.00,8.99,-999.0,no,yes,no,300234065513820,SVPVHI,AOML,UNKNOWN,North
2018-06-03T03:00:00Z,1527994800,2018,3,0,154.125,154.125,59.8518,-22.5066,-999.00,8.99,-999.0,no,yes,no,300234065513820,SVPVHI,AOML,UNKNOWN,North
2018-06-03T03:30:14Z,1527996614,2018,3,30,154.146,154.146,59.853,-22.4954,-999.00,8.96,-999.0,no,yes,no,300234065513820,SVPVHI,AOML,UNKNOWN,North
2018-06-03T04:00:28Z,1527998429,2018,4,0,154.167,154.167,59.8538,-22.4848,-999.00,8.97,-999.0,no,yes,no,300234065513820,SVPVHI,AOML,UNKNOWN,North
2018-06-03T04:30:43Z,1528000243,2018,4,30,154.188,154.188,59.8542,-22.4744,-999.00,8.97,-999.0,no,yes,no,300234065513820,SVPVHI,AOML,UNKNOWN,North
2018-06-03T04:59:31Z,1528001971,2018,5,0,154.208,154.208,59.855,-22.465,-999.00,8.95,-999.0,no,yes,no,300234065513820,SVPVHI,AOML,UNKNOWN,North
2018-06-03T05:29:45Z,1528003786,2018,5,30,154.229,154.229,59.8554,-22.4566,-999.00,8.91,-999.0,no,yes,no,300234065513820,SVPVHI,AOML,UNKNOWN,North
2018-06-03T06:00:00Z,1528005600,2018,6,0,154.25,154.25,59.8558,-22.4492,-999.00,8.86,-999.0,no,yes,no,300234065513820,SVPVHI,AOML,UNKNOWN,North
2018-06-03T06:30:14Z,1528007414,2018,6,30,154.271,154.271,59.8568,-22.444,-999.00,8.84,-999.0,no,yes,no,300234065513820,SVPVHI,AOML,UNKNOWN,North
2018-06-03T07:00:28Z,1528009229,2018,7,0,154.292,154.292,59.858,-22.439,-999.00,8.85,-999.0,no,yes,no,300234065513820,SVPVHI,AOML,UNKNOWN,North
2018-06-03T07:29:16Z,1528010957,2018,7,30,154.312,154.312,59.8598,-22.4338,-999.00,8.86,-999.0,no,yes,no,300234065513820,SVPVHI,AOML,UNKNOWN,North
2018-06-03T07:59:31Z,1528012771,2018,8,0,154.333,154.333,59.8618,-22.4286,-999.00,8.88,-999.0,no,yes,no,300234065513820,SVPVHI,AOML,UNKNOWN,North
2018-06-03T08:29:45Z,1528014586,2018,8,30,154.354,154.354,59.864,-22.423,-999.00,8.9,-999.0,no,yes,no,300234065513820,SVPVHI,AOML,UNKNOWN,North
2018-06-03T09:00:00Z,1528016400,2018,9,0,154.375,154.375,59.8658,-22.4176,-999.00,8.94,-999.0,no,yes,no,300234065513820,SVPVHI,AOML,UNKNOWN,North
2018-06-03T09:30:14Z,1528018214,2018,9,30,154.396,154.396,59.8678,-22.4122,-999.00,8.98,-999.0,no,yes,no,300234065513820,SVPVHI,AOML,UNKNOWN,North
2018-06-03T10:00:28Z,1528020029,2018,10,0,154.417,154.417,59.8698,-22.4068,-999.00,9.03,-999.0,no,yes,no,300234065513820,SVPVHI,AOML,UNKNOWN,North
2018-06-03T10:30:43Z,1528021843,2018,10,30,154.438,154.438,59.8718,-22.4012,-999.00,9.06,-999.0,no,yes,no,300234065513820,SVPVHI,AOML,UNKNOWN,North
2018-06-03T10:59:31Z,1528023571,2018,11,0,154.458,154.458,59.8738,-22.3952,-999.00,9.09,-999.0,no,yes,no,300234065513820,SVPVHI,AOML,UNKNOWN,North
2018-06-03T11:29:45Z,1528025386,2018,11,30,154.479,154.479,59.8756,-22.388,-999.00,9.13,-999.0,no,yes,no,300234065513820,SVPVHI,AOML,UNKNOWN,North
2018-06-03T12:00:00Z,1528027200,2018,12,0,154.5,154.5,59.8768,-22.381,-999.00,9.22,-999.0,no,yes,no,300234065513820,SVPVHI,AOML,UNKNOWN,North
2018-06-03T12:30:14Z,1528029014,2018,12,30,154.521,154.521,59.8776,-22.3748,-999.00,9.19,-999.0,no,yes,no,300234065513820,SVPVHI,AOML,UNKNOWN,North
2018-06-03T13:00:28Z,1528030829,2018,13,0,154.542,154.542,59.8784,-22.368,-999.00,9.3,-999.0,no,yes,no,300234065513820,SVPVHI,AOML,UNKNOWN,North
2018-06-03T13:29:16Z,1528032557,2018,13,30,154.562,154.562,59.8788,-22.3612,-999.00,9.44,-999.0,no,yes,no,300234065513820,SVPVHI,AOML,UNKNOWN,North
2018-06-03T13:59:31Z,1528034371,2018,14,0,154.583,154.583,59.8788,-22.3546,-999.00,9.55,-999.0,no,yes,no,300234065513820,SVPVHI,AOML,UNKNOWN,North
2018-06-03T14:29:45Z,1528036186,2018,14,30,154.604,154.604,59.8788,-22.349,-999.00,9.8,-999.0,no,yes,no,300234065513820,SVPVHI,AOML,UNKNOWN,North
2018-06-03T15:00:00Z,1528038000,2018,15,0,154.625,154.625,59.879,-22.3444,-999.00,9.91,-999.0,no,yes,no,300234065513820,SVPVHI,AOML,UNKNOWN,North
2018-06-03T15:30:14Z,1528039814,2018,15,30,154.646,154.646,59.879,-22.3414,-999.00,9.89,-999.0,no,yes,no,300234065513820,SVPVHI,AOML,UNKNOWN,North
2018-06-03T16:00:28Z,1528041629,2018,16,0,154.667,154.667,59.8792,-22.3374,-999.00,9.8,-999.0,no,yes,no,300234065513820,SVPVHI,AOML,UNKNOWN,North
2018-06-03T16:30:43Z,1528043443,2018,16,30,154.688,154.688,59.879,-22.3336,-999.00,9.96,-999.0,no,yes,no,300234065513820,SVPVHI,AOML,UNKNOWN,North
2018-06-03T16:59:31Z,1528045171,2018,17,0,154.708,154.708,59.879,-22.3302,-999.00,9.96,-999.0,no,yes,no,300234065513820,SVPVHI,AOML,UNKNOWN,North
2018-06-03T17:29:45Z,1528046986,2018,17,30,154.729,154.729,59.8788,-22.3282,-999.00,9.94,-999.0,no,yes,no,300234065513820,SVPVHI,AOML,UNKNOWN,North
2018-06-03T18:00:00Z,1528048800,2018,18,0,154.75,154.75,59.879,-22.327,-999.00,9.93,-999.0,no,yes,no,300234065513820,SVPVHI,AOML,UNKNOWN,North
2018-06-03T18:30:14Z,1528050614,2018,18,30,154.771,154.771,59.8792,-22.3274,-999.00,9.92,-999.0,no,yes,no,300234065513820,SVPVHI,AOML,UNKNOWN,North
2018-06-03T19:00:28Z,1528052429,2018,19,0,154.792,154.792,59.8794,-22.3298,-999.00,9.99,-999.0,no,yes,no,300234065513820,SVPVHI,AOML,UNKNOWN,North
2018-06-03T19:29:16Z,1528054157,2018,19,30,154.812,154.812,59.8806,-22.3322,-999.00,9.88,-999.0,no,yes,no,300234065513820,SVPVHI,AOML,UNKNOWN,North
2018-06-03T19:59:31Z,1528055971,2018,20,0,154.833,154.833,59.882,-22.3332,-999.00,9.66,-999.0,no,yes,no,300234065513820,SVPVHI,AOML,UNKNOWN,North
2018-06-03T20:29:45Z,1528057786,2018,20,30,154.854,154.854,59.8834,-22.3344,-999.00,9.71,-999.0,no,yes,no,300234065513820,SVPVHI,AOML,UNKNOWN,North
2018-06-03T21:00:00Z,1528059600,2018,21,0,154.875,154.875,59.8848,-22.3362,-999.00,9.68,-999.0,no,yes,no,300234065513820,SVPVHI,AOML,UNKNOWN,North
2018-06-03T21:30:14Z,1528061414,2018,21,30,154.896,154.896,59.8868,-22.338,-999.00,9.68,-999.0,no,yes,no,300234065513820,SVPVHI,AOML,UNKNOWN,North
2018-06-03T22:00:28Z,1528063229,2018,22,0,154.917,154.917,59.8892,-22.339,-999.00,9.55,-999.0,no,yes,no,300234065513820,SVPVHI,AOML,UNKNOWN,North
2018-06-03T22:30:43Z,1528065043,2018,22,30,154.938,154.938,59.8918,-22.3392,-999.00,9.6,-999.0,no,yes,no,300234065513820,SVPVHI,AOML,UNKNOWN,North
2018-06-03T22:59:31Z,1528066771,2018,23,0,154.958,154.958,59.8944,-22.3392,-999.00,9.51,-999.0,no,yes,no,300234065513820,SVPVHI,AOML,UNKNOWN,North
2018-06-03T23:29:45Z,1528068586,2018,23,30,154.979,154.979,59.8972,-22.3378,-999.00,9.48,-999.0,no,yes,no,300234065513820,SVPVHI,AOML,UNKNOWN,North
2018-06-04T00:00:00Z,1528070400,2018,0,0,155.0,155.0,59.8994,-22.335,-999.00,9.5,-999.0,no,yes,no,300234065513820,SVPVHI,AOML,UNKNOWN,North
2018-06-04T00:30:14Z,1528072214,2018,0,30,155.021,155.021,59.9014,-22.3312,-999.00,9.5,-999.0,no,yes,no,300234065513820,SVPVHI,AOML,UNKNOWN,North
2018-06-04T01:00:28Z,1528074029,2018,1,0,155.042,155.042,59.903,-22.3258,-999.00,9.45,-999.0,no,yes,no,300234065513820,SVPVHI,AOML,UNKNOWN,North
2018-06-04T01:29:16Z,1528075757,2018,1,30,155.062,155.062,59.9046,-22.3192,-999.00,9.41,-999.0,no,yes,no,300234065513820,SVPVHI,AOML,UNKNOWN,North
2018-06-04T01:59:31Z,1528077571,2018,2,0,155.083,155.083,59.9058,-22.3126,-999.00,9.38,-999.0,no,yes,no,300234065513820,SVPVHI,AOML,UNKNOWN,North
2018-06-04T02:29:45Z,1528079386,2018,2,30,155.104,155.104,59.9066,-22.3058,-999.00,9.35,-999.0,no,yes,no,300234065513820,SVPVHI,AOML,UNKNOWN,North
2018-06-04T03:00:00Z,1528081200,2018,3,0,155.125,155.125,59.9072,-22.3,-999.00,9.3,-999.0,no,yes,no,300234065513820,SVPVHI,AOML,UNKNOWN,North
2018-06-04T03:30:14Z,1528083014,2018,3,30,155.146,155.146,59.9072,-22.2944,-999.00,9.33,-999.0,no,yes,no,300234065513820,SVPVHI,AOML,UNKNOWN,North
2018-06-04T04:00:28Z,1528084829,2018,4,0,155.167,155.167,59.907,-22.2892,-999.00,9.31,-999.0,no,yes,no,300234065513820,SVPVHI,AOML,UNKNOWN,North
2018-06-04T04:30:43Z,1528086643,2018,4,30,155.188,155.188,59.907,-22.2842,-999.00,9.26,-999.0,no,yes,no,300234065513820,SVPVHI,AOML,UNKNOWN,North
2018-06-04T04:59:31Z,1528088371,2018,5,0,155.208,155.208,59.9066,-22.28,-999.00,9.28,-999.0,no,yes,no,300234065513820,SVPVHI,AOML,UNKNOWN,North
2018-06-04T05:29:45Z,1528090186,2018,5,30,155.229,155.229,59.906,-22.2766,-999.00,9.25,-999.0,no,yes,no,300234065513820,SVPVHI,AOML,UNKNOWN,North
2018-06-04T06:00:00Z,1528092000,2018,6,0,155.25,155.25,59.9056,-22.2736,-999.00,9.29,-999.0,no,yes,no,300234065513820,SVPVHI,AOML,UNKNOWN,North
2018-06-04T06:30:14Z,1528093814,2018,6,30,155.271,155.271,59.9052,-22.2708,-999.00,9.32,-999.0,no,yes,no,300234065513820,SVPVHI,AOML,UNKNOWN,North
2018-06-04T07:00:28Z,1528095629,2018,7,0,155.292,155.292,59.9046,-22.2692,-999.00,9.32,-999.0,no,yes,no,300234065513820,SVPVHI,AOML,UNKNOWN,North
2018-06-04T07:29:16Z,1528097357,2018,7,30,155.312,155.312,59.9044,-22.2692,-999.00,9.34,-999.0,no,yes,no,300234065513820,SVPVHI,AOML,UNKNOWN,North
2018-06-04T07:59:31Z,1528099171,2018,8,0,155.333,155.333,59.9044,-22.2712,-999.00,9.35,-999.0,no,yes,no,300234065513820,SVPVHI,AOML,UNKNOWN,North
2018-06-04T08:29:45Z,1528100986,2018,8,30,155.354,155.354,59.9052,-22.2738,-999.00,9.37,-999.0,no,yes,no,300234065513820,SVPVHI,AOML,UNKNOWN,North
2018-06-04T09:00:00Z,1528102800,2018,9,0,155.375,155.375,59.9068,-22.2772,-999.00,9.41,-999.0,no,yes,no,300234065513820,SVPVHI,AOML,UNKNOWN,North